STARLINK-34919

Last updated on Mon Oct 20 2025 00:02:07 GMT+0000 (Coordinated Universal Time)

1 65802U 25218M 25292.26329972 .00127083 00000+0 22925-2 0 9991 2 65802 97.6024 152.8387 0002092 92.6786 267.4704 15.49289790 3643
UTC large
Height (km)
Speed (km/s)
/
Latitude / Longitude
Inclination (degrees)
Orbital Period (minutes)
Azimuth
Elevation
Range (km)
Doppler Factor

Next 0 passes for location: London (51.5072 / 0.1276)

Sorry there are no passes over London.